Date String (YYYY-MM-DD hh:mm:ss) UTC,Instrument flags,absolute air pressure of the measurement (hPa),sample flow rate (lpm),inlet stack bypass flow (lpm),air temperature of the measurement (°C),ambient temperature measured by the external sensor (°C),aerosol sample conditioner tube jacket temperature (°C),OPC LED temperature (°C),internal box temperature (°C),relative humidity of the measurement (%),span deviation,mass concentration of particles derived from Lorenz-Mie calculation of OPC scattering (μg/m³),mass concentration of particles derived from Lorenz-Mie calculation of OPC scattering (μg/m³),mass concentration of particles derived from Lorenz-Mie calculation of OPC scattering (μg/m³)
DateTimeUTC,F1_M11,P_M11,Q1_M11,Q2_M11,T1_M11,T2_M11,T3_M11,T4_M11,T5_M11,U1_M11,ZSPAN_M11,X2_M11,X0_M11,X1_M11
2023-06-16 18:00:00,SystemResetWarning,0833.2,5.00,000.00,030.1,028.5,000.0,038.6,031.7,29.8,0000.0,0004.19,0007.93,0003.94
2023-06-16 18:01:00,SystemResetWarning,0833.2,5.00,000.00,030.1,028.6,000.0,038.6,031.7,30.2,0000.0,0004.19,0007.64,0003.94
2023-06-16 18:02:00,SystemResetWarning,0833.3,5.00,000.00,030.1,028.6,000.0,038.6,031.7,30.4,0000.0,0004.18,0007.35,0003.93
2023-06-16 18:03:00,SystemResetWarning,0833.3,5.00,000.00,030.2,028.7,000.0,038.6,031.8,29.6,0000.0,0004.16,0007.74,0003.92
2023-06-16 18:04:00,SystemResetWarning,0833.2,5.00,000.00,030.2,028.7,000.0,038.7,031.8,29.1,0000.0,0004.11,0007.80,0003.89
2023-06-16 18:05:00,SystemResetWarning,0833.2,5.00,000.00,030.2,028.8,000.0,038.7,031.8,28.5,0000.0,0004.07,0007.49,0003.85
2023-06-16 18:06:00,SystemResetWarning,0833.2,5.00,000.00,030.2,028.6,000.0,038.7,031.8,28.7,0000.0,0004.04,0007.06,0003.81
2023-06-16 18:07:00,SystemResetWarning,0833.2,4.98,000.00,030.2,026.9,000.0,038.6,031.7,28.5,0000.0,0004.00,0007.00,0003.76
2023-06-16 18:08:00,SystemResetWarning,0833.2,5.01,000.00,030.2,025.7,000.0,038.6,031.6,28.8,0000.0,0003.95,0006.84,0003.73
2023-06-16 18:09:00,SystemResetWarning,0833.2,5.01,000.00,030.1,025.8,000.0,038.6,031.4,29.0,0000.0,0003.92,0006.86,0003.69
2023-06-16 18:10:00,SystemResetWarning,0833.1,4.99,000.00,030.0,026.1,000.0,038.6,031.2,31.1,0000.0,0003.88,0006.87,0003.62
2023-06-16 18:11:00,SystemResetWarning,0833.2,5.00,000.00,030.0,026.5,000.0,038.6,031.3,30.1,0000.0,0003.82,0006.81,0003.56
2023-06-16 18:12:00,SystemResetWarning,0833.1,5.00,000.00,030.0,026.9,000.0,038.6,031.3,29.3,0000.0,0003.73,0006.53,0003.50
2023-06-16 18:13:00,SystemResetWarning,0833.1,5.00,000.00,030.0,027.2,000.0,038.5,031.4,29.0,0000.0,0003.65,0006.31,0003.45
2023-06-16 18:14:00,SystemResetWarning,0833.1,4.99,000.00,030.0,027.5,000.0,038.5,031.4,29.7,0000.0,0003.57,0005.40,0003.37
2023-06-16 18:15:00,SystemResetWarning,0833.1,5.00,000.00,030.0,027.7,000.0,038.5,031.5,28.6,0000.0,0003.51,0004.73,0003.31
2023-06-16 18:16:00,SystemResetWarning,0833.1,5.00,000.00,030.0,027.9,000.0,038.5,031.5,28.4,0000.0,0003.49,0004.80,0003.28
2023-06-16 18:17:00,SystemResetWarning,0833.1,5.00,000.00,030.0,028.1,000.0,038.6,031.5,28.8,0000.0,0003.47,0004.79,0003.28
2023-06-16 18:18:00,SystemResetWarning,0833.1,5.01,000.00,030.0,028.2,000.0,038.6,031.6,28.7,0000.0,0003.48,0005.11,0003.29
2023-06-16 18:19:00,SystemResetWarning,0833.3,5.00,000.00,030.0,028.3,000.0,038.6,031.6,28.9,0000.0,0003.51,0005.84,0003.32
2023-06-16 18:20:00,SystemResetWarning,0833.3,5.01,000.00,030.1,028.4,000.0,038.6,031.6,29.0,0000.0,0003.55,0005.87,0003.37
2023-06-16 18:21:00,SystemResetWarning,0833.0,5.00,000.00,030.1,028.5,000.0,038.6,031.7,29.6,0000.0,0003.61,0005.91,0003.44
2023-06-16 18:22:00,SystemResetWarning,0833.0,5.00,000.00,030.1,028.6,000.0,038.6,031.7,28.5,0000.0,0003.68,0006.10,0003.51
2023-06-16 18:23:00,SystemResetWarning,0833.1,5.00,000.00,030.1,028.7,000.0,038.6,031.7,28.5,0000.0,0003.75,0006.30,0003.55
2023-06-16 18:24:00,SystemResetWarning,0833.1,5.00,000.00,030.2,028.8,000.0,038.6,031.8,29.1,0000.0,0003.80,0006.41,0003.60
2023-06-16 18:25:00,SystemResetWarning,0833.0,5.01,000.00,030.2,028.8,000.0,038.7,031.8,28.4,0000.0,0003.87,0007.11,0003.66
2023-06-16 18:26:00,SystemResetWarning,0833.0,4.99,000.00,030.2,028.3,000.0,038.7,031.8,28.8,0000.0,0003.97,0007.82,0003.73
2023-06-16 18:27:00,SystemResetWarning,0833.1,4.99,000.00,030.2,026.3,000.0,038.6,031.8,29.3,0000.0,0004.04,0007.86,0003.79
2023-06-16 18:28:00,SystemResetWarning,0833.0,5.01,000.00,030.2,025.6,000.0,038.6,031.7,29.6,0000.0,0004.09,0007.86,0003.82
2023-06-16 18:29:00,SystemResetWarning,0833.0,5.01,000.00,030.1,025.7,000.0,038.5,031.5,28.9,0000.0,0004.13,0007.73,0003.86
2023-06-16 18:30:00,SystemResetWarning,0833.1,4.99,000.00,030.0,026.1,000.0,038.5,031.4,28.9,0000.0,0004.14,0007.35,0003.89
2023-06-16 18:31:00,SystemResetWarning,0833.2,5.00,000.00,030.0,026.5,000.0,038.5,031.3,29.1,0000.0,0004.17,0007.40,0003.91
2023-06-16 18:32:00,SystemResetWarning,0833.2,4.99,000.00,030.0,026.9,000.0,038.5,031.4,29.0,0000.0,0004.22,0007.49,0003.95
2023-06-16 18:33:00,SystemResetWarning,0833.3,5.00,000.00,030.0,027.2,000.0,038.5,031.4,29.4,0000.0,0004.19,0007.38,0003.94
2023-06-16 18:34:00,SystemResetWarning,0832.9,5.00,000.00,030.0,027.5,000.0,038.5,031.5,29.6,0000.0,0004.09,0007.19,0003.86
2023-06-16 18:35:00,SystemResetWarning,0833.0,4.99,000.00,030.0,027.8,000.0,038.5,031.5,29.6,0000.0,0004.00,0007.01,0003.76
2023-06-16 18:36:00,SystemResetWarning,0832.9,5.00,000.00,030.0,028.0,000.0,038.6,031.5,29.6,0000.0,0003.89,0006.22,0003.66
2023-06-16 18:37:00,SystemResetWarning,0833.0,5.00,000.00,030.0,028.1,000.0,038.6,031.5,29.7,0000.0,0003.77,0005.10,0003.56
2023-06-16 18:38:00,SystemResetWarning,0833.0,5.00,000.00,030.0,028.2,000.0,038.6,031.6,29.8,0000.0,0003.70,0005.34,0003.49
2023-06-16 18:39:00,SystemResetWarning,0832.9,5.00,000.00,030.1,028.3,000.0,038.6,031.7,29.9,0000.0,0003.67,0005.35,0003.46
2023-06-16 18:40:00,SystemResetWarning,0833.0,5.00,000.00,030.1,028.4,000.0,038.6,031.7,30.0,0000.0,0003.65,0005.30,0003.44
2023-06-16 18:41:00,SystemResetWarning,0833.1,5.01,000.00,030.1,028.5,000.0,038.6,031.7,30.2,0000.0,0003.67,0006.33,0003.42
2023-06-16 18:42:00,SystemResetWarning,0833.1,5.01,000.00,030.1,028.6,000.0,038.6,031.7,30.4,0000.0,0003.64,0006.47,0003.38
2023-06-16 18:43:00,SystemResetWarning,0832.9,4.99,000.00,030.1,028.6,000.0,038.6,031.8,30.4,0000.0,0003.56,0006.26,0003.32
2023-06-16 18:44:00,SystemResetWarning,0832.9,4.99,000.00,030.2,028.7,000.0,038.6,031.8,30.0,0000.0,0003.53,0006.36,0003.26
2023-06-16 18:45:00,SystemResetWarning,0833.1,5.00,000.00,030.2,028.7,000.0,038.6,031.8,29.6,0000.0,0003.56,0006.53,0003.27
2023-06-16 18:46:00,SystemResetWarning,0833.2,4.99,000.00,030.2,028.7,000.0,038.7,031.8,29.5,0000.0,0003.58,0006.71,0003.27
2023-06-16 18:47:00,SystemResetWarning,0833.4,5.00,000.00,030.2,028.8,000.0,038.7,031.8,29.6,0000.0,0003.61,0006.93,0003.28
2023-06-16 18:48:00,SystemResetWarning,0833.1,5.01,000.00,030.2,028.8,000.0,038.7,031.8,29.7,0000.0,0003.61,0006.96,0003.29
2023-06-16 18:49:00,SystemResetWarning,0833.0,5.01,000.00,030.3,028.8,000.0,038.7,031.9,29.6,0000.0,0003.58,0006.73,0003.26
2023-06-16 18:50:00,SystemResetWarning,0833.0,5.00,000.00,030.3,028.8,000.0,038.8,031.9,29.5,0000.0,0003.52,0006.64,0003.19
2023-06-16 18:51:00,SystemResetWarning,0833.0,5.00,000.00,030.3,028.9,000.0,038.8,031.9,29.2,0000.0,0003.44,0006.55,0003.11
2023-06-16 18:52:00,SystemResetWarning,0833.0,5.00,000.00,030.3,028.9,000.0,038.8,031.9,29.3,0000.0,0003.29,0005.53,0002.93
2023-06-16 18:53:00,SystemResetWarning,0833.1,5.00,000.00,030.3,028.9,000.0,038.8,031.9,29.5,0000.0,0003.19,0005.11,0002.74
2023-06-16 18:54:00,SystemResetWarning,0833.2,5.00,000.00,030.4,028.9,000.0,038.8,031.9,29.6,0000.0,0003.09,0004.91,0002.58
2023-06-16 18:55:00,SystemResetWarning,0833.2,5.00,000.00,030.4,028.9,000.0,038.8,032.0,29.6,0000.0,0002.95,0004.68,0002.46
2023-06-16 18:56:00,SystemResetWarning,0833.1,5.00,000.00,030.4,029.0,000.0,038.9,032.0,29.5,0000.0,0002.85,0004.53,0002.38
2023-06-16 18:57:00,SystemResetWarning,0833.1,5.00,000.00,030.4,029.0,000.0,038.9,032.0,29.2,0000.0,0002.81,0004.40,0002.35
2023-06-16 18:58:00,SystemResetWarning,0833.2,5.00,000.00,030.4,029.0,000.0,038.9,032.0,29.2,0000.0,0002.80,0004.40,0002.31
2023-06-16 18:59:00,SystemResetWarning,0833.2,5.00,000.00,030.5,029.0,000.0,038.9,032.0,29.0,0000.0,0002.79,0004.43,0002.24
